Tracking 30970 objects as of 3-Jul-2025
HD Live streaming from Space Station
objects crossing your sky now

COSMOS 539

Track COSMOS 539 now!
10-day predictions
COSMOS 539 is classified as:


NORAD ID: 6319
Int'l Code: 1972-102A
Perigee: 1,348.2 km
Apogee: 1,385.9 km
Inclination: 74.0 °
Period: 112.9 minutes
Semi major axis: 7738 km
RCS: 2.7132 m2 (large)
Launch date: December 21, 1972
Source: Commonwealth of Independent States (former USSR) (CIS)
Launch site: PLESETSK MISSILE AND SPACE COMPLEX (PKMTR)
Your satellite tracking list
STARLINK-2363
Track 1 satellite(s)




NASA's NSSDC Master Catalog

Two Line Element Set (TLE):
1 06319U 72102A   25183.93582470 -.00000018  00000-0 -11236-5 0  9997
2 06319  74.0177  35.8567 0024359 288.0925 181.5209 12.75422295445646
Source of the keplerian elements: AFSPC